Location: Huppendorf
(49.9333°N, 11.1500°E)
Time: 10:27:32
(UTC+00:00)

SWAS - Pass Details

Date: 27 February 2020
Orbit: 582 x 589 km, 69.9° (Epoch: 29 March)

Event Time Altitude Azimuth Distance (km) Brightness Sun altitude
Rises 18:57:54 0° 329° (NNW) 2,820 8.6 -20.7°
Reaches altitude 10° 19:00:08 10° 331° (NNW) 1,914 7.6 -21.1°
Maximum altitude 19:04:25 77° 57° (ENE) 604 4.3 -21.7°
Enters shadow 19:04:47 71° 107° (ESE) 621 4.3 -21.8°
